Prague, Czech Republic

9:27 PM CET on December 02, 2016 (GMT +0100)
Prague

Weather History for 11518 - July, 2013

Change the Weather History Date:

Saturday, July 13, 2013

  Actual Average Record
Temperature  
Mean Temperature 60 °F -  
Max Temperature 72 °F - - ()
Min Temperature 49 °F - - ()
Degree Days  
Heating Degree Days 4    
Growing Degree Days 10 (Base 50)    
Moisture  
Dew Point 51 °F    
Average Humidity 67    
Maximum Humidity 94    
Minimum Humidity 37    
Precipitation  
Precipitation 0.00 in - - ()
Sea Level Pressure  
Sea Level Pressure 30.13 in    
Wind  
Wind Speed 6 mph ()    
Max Wind Speed 15 mph    
Max Gust Speed -    
Visibility 7.7 miles    
Events      
T = Trace of Precipitation, MM = Missing Value Source: Averaged Metar Reports

Daily Weather History Graph

Daily Weather History Graph

Search for Another Location

Airport or City:

Trip Planner

Search our weather history database for the weather conditions in past years. The results will help you decide how hot, cold, wet, or windy it might be!

Date:

Astronomy

Jul. 13, 2013 Rise Set
Actual Time 5:07 AM CEST 9:08 PM CEST
Civil Twilight 4:25 AM CEST 9:51 PM CEST
Nautical Twilight 3:25 AM CEST 10:51 PM CEST
Astronomical Twilight 1:22 AM CEST 12:43 AM CEST
Moon 10:42 AM CEST (7/13) 11:01 PM CEST (7/13)
Length of Visible Light 17h 26m
Length of Day
16h 01m
Waxing Crescent, 23% of the Moon is Illuminated
Jul 13
Waxing Crescent
Jul 16
First Quarter
Jul 22
Full
Jul 29
Last Quarter
Aug 6
New

Hourly Weather History & Observations

Time (CEST) Temp. Dew Point Humidity Pressure Visibility Wind Dir Wind Speed Gust Speed Precip Events Conditions
12:00 AM 55 °F 50 °F 77% 30.15 in 31 mi WSW 2.2 mph - -   Scattered Clouds
12:00 AM 55.4 °F 50.0 °F 82% 30.15 in - West 3.5 mph - N/A   Clear
12:30 AM 53.6 °F 48.2 °F 82% 30.15 in - West 3.5 mph - N/A   Clear
1:00 AM 52 °F 48 °F 82% 30.16 in 31 mi West 4.5 mph - -   Scattered Clouds
1:00 AM 51.8 °F 48.2 °F 88% 30.15 in - West 3.5 mph - N/A   Clear
1:30 AM 50.0 °F 48.2 °F 94% 30.12 in - WSW 5.8 mph - N/A   Clear
2:00 AM 50 °F 48 °F 89% 30.16 in 12 mi WSW 3.5 mph - -   Scattered Clouds
2:00 AM 50.0 °F 48.2 °F 94% 30.12 in - WSW 6.9 mph - N/A   Clear
2:30 AM 50.0 °F 48.2 °F 94% 30.12 in - WSW 6.9 mph - N/A   Clear
3:00 AM 50.0 °F 48.2 °F 94% 30.12 in - WSW 8.1 mph - N/A   Clear
3:30 AM 50.0 °F 48.2 °F 94% 30.12 in - WSW 8.1 mph - N/A   Clear
4:00 AM 50 °F 47 °F 88% 30.15 in 12 mi WSW 6.7 mph - -   Partly Cloudy
4:00 AM 50.0 °F 48.2 °F 94% 30.12 in - WSW 9.2 mph - N/A   Clear
4:30 AM 50.0 °F 48.2 °F 94% 30.12 in - WSW 9.2 mph - N/A   Clear
5:00 AM 50 °F 47 °F 87% 30.15 in 12 mi SW 6.7 mph - -   Mostly Cloudy
5:00 AM 50.0 °F 48.2 °F 94% 30.12 in - WSW 10.4 mph - N/A   Clear
5:30 AM 50.0 °F 48.2 °F 94% 30.12 in - WSW 9.2 mph - N/A   Clear
6:00 AM 51 °F 47 °F 83% 30.15 in 16 mi WSW 3.5 mph - -   Partly Cloudy
6:00 AM 51.8 °F 48.2 °F 88% 30.12 in - WSW 8.1 mph - N/A   Clear
6:30 AM 51.8 °F 48.2 °F 88% 30.12 in - WSW 8.1 mph - N/A   Clear
7:00 AM 55 °F 50 °F 79% 30.14 in 16 mi WSW 6.7 mph - -   Partly Cloudy
7:00 AM 55.4 °F 50.0 °F 82% 30.12 in - WSW 8.1 mph - N/A   Clear
7:30 AM 55.4 °F 50.0 °F 82% 30.12 in - West 6.9 mph - N/A   Clear
7:53 AM 59.0 °F 51.8 °F 77% 30.12 in - West 4.6 mph - N/A   Clear
8:00 AM 60 °F 51 °F 63% 30.13 in 25 mi West 4.5 mph - -   Scattered Clouds
8:00 AM 59.0 °F 51.8 °F 77% 30.12 in - WNW 5.8 mph - N/A   Clear
8:23 AM 62.6 °F 51.8 °F 68% 30.12 in - NNW 6.9 mph - N/A   Clear
8:30 AM 62.6 °F 51.8 °F 68% 30.12 in - NNW 6.9 mph - N/A   Clear
9:00 AM 64 °F 53 °F 57% 30.12 in 25 mi NNW 6.7 mph - -   Scattered Clouds
9:00 AM 64.4 °F 51.8 °F 64% 30.12 in - North 5.8 mph - N/A   Clear
9:30 AM 64.4 °F 53.6 °F 68% 30.15 in 6.2 mi North 6.9 mph - N/A   Partly Cloudy
10:00 AM 66 °F 52 °F 51% 30.13 in 31 mi NNW 6.7 mph - -   Partly Cloudy
10:00 AM 64.4 °F 51.8 °F 64% 30.15 in 6.2 mi North 8.1 mph - N/A   Scattered Clouds
10:30 AM 66.2 °F 53.6 °F 64% 30.15 in 6.2 mi NNW 6.9 mph - N/A   Scattered Clouds
11:00 AM 68 °F 53 °F 49% 30.12 in 31 mi North 6.7 mph - -   Mostly Cloudy
11:00 AM 68.0 °F 53.6 °F 60% 30.15 in 6.2 mi North 6.9 mph - N/A   Scattered Clouds
11:30 AM 68.0 °F 51.8 °F 56% 30.12 in 6.2 mi NNE 6.9 mph - N/A   Scattered Clouds
12:00 PM 68 °F 51 °F 43% 30.11 in 37 mi NNW 6.7 mph - -   Partly Cloudy
12:00 PM 68.0 °F 51.8 °F 56% 30.12 in 6.2 mi NW 6.9 mph - N/A   Partly Cloudy
12:30 PM 68.0 °F 51.8 °F 56% 30.12 in 6.2 mi NW 5.8 mph - N/A   Partly Cloudy
1:00 PM 69 °F 52 °F 45% 30.11 in 37 mi North 8.9 mph - -   Partly Cloudy
1:00 PM 68.0 °F 51.8 °F 56% 30.12 in 6.2 mi North 11.5 mph - N/A   Partly Cloudy
1:30 PM 69.8 °F 50.0 °F 49% 30.12 in 6.2 mi North 8.1 mph - N/A   Partly Cloudy
2:00 PM 69 °F 52 °F 43% 30.10 in 37 mi North 4.6 mph - -   Scattered Clouds
2:00 PM 68.0 °F 51.8 °F 56% 30.12 in 6.2 mi North 10.4 mph - N/A   Partly Cloudy
2:30 PM 69.8 °F 51.8 °F 53% 30.12 in 6.2 mi NNW 10.4 mph - N/A   Partly Cloudy
3:00 PM 69 °F 54 °F 48% 30.10 in 37 mi NW 4.6 mph - -   Scattered Clouds
3:00 PM 68.0 °F 53.6 °F 60% 30.12 in 6.2 mi NNW 9.2 mph - N/A   Partly Cloudy
3:30 PM 69.8 °F 53.6 °F 56% 30.12 in 6.2 mi NW 6.9 mph - N/A   Partly Cloudy
4:00 PM 71 °F 53 °F 43% 30.09 in 37 mi North 11.2 mph - -   Scattered Clouds
4:00 PM 71.6 °F 53.6 °F 53% 30.12 in 6.2 mi NNW 11.5 mph - N/A   Partly Cloudy
4:30 PM 71.6 °F 51.8 °F 50% 30.12 in 6.2 mi NW 10.4 mph - N/A   Partly Cloudy
5:00 PM 69 °F 51 °F 43% 30.09 in 37 mi NNW 13.4 mph - -   Scattered Clouds
5:00 PM 69.8 °F 51.8 °F 53% 30.12 in 6.2 mi NNW 15.0 mph - N/A   Partly Cloudy
5:30 PM 71.6 °F 51.8 °F 50% 30.12 in 6.2 mi NNW 13.8 mph - N/A   Partly Cloudy
6:00 PM 71 °F 50 °F 37% 30.09 in 44 mi NNW 11.2 mph - -   Scattered Clouds
6:00 PM 71.6 °F 51.8 °F 50% 30.12 in 6.2 mi NNW 13.8 mph - N/A   Partly Cloudy
6:30 PM 69.8 °F 50.0 °F 49% 30.12 in 6.2 mi NNW 13.8 mph - N/A   Partly Cloudy
7:00 PM 69 °F 50 °F 40% 30.09 in 44 mi NNW 11.2 mph - -   Scattered Clouds
7:00 PM 69.8 °F 51.8 °F 53% 30.12 in - NNW 11.5 mph - N/A   Clear
7:30 PM 68.0 °F 51.8 °F 56% 30.12 in - North 11.5 mph - N/A   Clear
8:00 PM 67 °F 52 °F 47% 30.10 in 44 mi NNW 8.9 mph - -   Scattered Clouds
8:00 PM 66.2 °F 51.8 °F 60% 30.12 in - NNW 9.2 mph - N/A   Clear
8:30 PM 64.4 °F 53.6 °F 68% 30.12 in - NNW 9.2 mph - N/A   Clear
9:00 PM 62 °F 53 °F 63% 30.12 in 44 mi NNW 4.5 mph - -   Scattered Clouds
9:00 PM 62.6 °F 51.8 °F 68% 30.12 in - NNW 6.9 mph - N/A   Clear
9:30 PM 62.6 °F 51.8 °F 68% 30.12 in - NNW 6.9 mph - N/A   Clear
10:00 PM 62 °F 51 °F 57% 30.14 in 37 mi NW 4.5 mph - -   Scattered Clouds
10:00 PM 62.6 °F 51.8 °F 68% 30.15 in - NW 6.9 mph - N/A   Clear
10:30 PM 59.0 °F 50.0 °F 72% 30.15 in - WNW 6.9 mph - N/A   Clear
11:00 PM 57 °F 51 °F 74% 30.15 in 31 mi West 6.7 mph - -   Scattered Clouds
11:00 PM 57.2 °F 50.0 °F 77% 30.15 in - WNW 5.8 mph - N/A   Clear
11:30 PM 57.2 °F 50.0 °F 77% 30.15 in - WNW 6.9 mph - N/A   Clear